Location: Altoona
(40.5167°N, 78.4000°W)
Time: 15:18:19
(UTC-04:00)

Cosmos 1892 Rocket - Pass Details

Date: 21 August 2017
Orbit: 605 x 635 km, 82.5° (Epoch: 24 September)

Event Time Altitude Azimuth Distance (km) Brightness Sun altitude
Rises 22:03:52 0° 356° (N) 2,916 7.6 -21.3°
Reaches altitude 10° 22:06:08 10° 360° (N) 2,000 6.7 -21.7°
Enters shadow 22:10:29 60° 78° (ENE) 711 3.6 -22.3°
